,,,PA_Meas_PMT16A,,PR_Meas_QMR101_102,,RH_Meas_QMH101,,SR_Meas_QMS101,,TA_Meas_QMH101,,GenWind,,GenWind,
date,time,status,PA,status,PR,status,RH,status,SR,status,TA,status,DirAvg,status,SpdAvg,
2008-12-26, 00:00:05,VALID,1002.36,VALID,0,VALID,92.462,VALID,0,VALID,25.5921,VALID,296,VALID,0.996484,
2008-12-26, 00:01:05,VALID,1002.34,VALID,0,VALID,92.2255,VALID,0,VALID,25.6116,VALID,287,VALID,0.657812,
2008-12-26, 00:02:05,VALID,1002.34,VALID,0,VALID,92.1721,VALID,0,VALID,25.67,VALID,287,VALID,0.224609,
2008-12-26, 00:03:05,VALID,1002.35,VALID,0,VALID,91.8212,VALID,0,VALID,25.67,VALID,287,VALID,0.874609,
2008-12-26, 00:04:05,VALID,1002.34,VALID,0,VALID,91.6915,VALID,0,VALID,25.7109,VALID,272,VALID,0.715625,
2008-12-26, 00:05:05,VALID,1002.37,VALID,0,VALID,91.5389,VALID,0,VALID,25.7285,VALID,277,VALID,0.777734,
2008-12-26, 00:06:05,VALID,1002.33,VALID,0,VALID,91.4245,VALID,0,VALID,25.7499,VALID,285,VALID,0.435156,
2008-12-26, 00:07:05,VALID,1002.35,VALID,0,VALID,91.4474,VALID,0,VALID,25.7674,VALID,285,VALID,0.0230469,
2008-12-26, 00:08:05,VALID,1002.36,VALID,0,VALID,91.2033,VALID,0,VALID,25.7889,VALID,290,VALID,0.617969,
2008-12-26, 00:09:05,VALID,1002.33,VALID,0,VALID,91.0812,VALID,0,VALID,25.7889,VALID,289,VALID,0.173047,
2008-12-26, 00:10:05,VALID,1002.32,VALID,0,VALID,91.0659,VALID,0,VALID,25.8083,VALID,289,VALID,0.0449219,
2008-12-26, 00:11:05,VALID,1002.33,VALID,0,VALID,91.0125,VALID,0,VALID,25.7869,VALID,289,VALID,0.00664063,
2008-12-26, 00:12:05,VALID,1002.31,VALID,0,VALID,91.0278,VALID,0,VALID,25.8278,VALID,289,VALID,0.194141,
2008-12-26, 00:13:05,VALID,1002.34,VALID,0,VALID,91.0278,VALID,0,VALID,25.8083,VALID,289,VALID,0.232812,
2008-12-26, 00:14:05,VALID,1002.34,VALID,0,VALID,91.0278,VALID,0,VALID,25.8064,VALID,289,VALID,0.236328,
2008-12-26, 00:15:05,VALID,1002.34,VALID,0,VALID,90.9363,VALID,0,VALID,25.8278,VALID,289,VALID,0.382813,
2008-12-26, 00:16:05,VALID,1002.31,VALID,0,VALID,90.7303,VALID,0,VALID,25.8064,VALID,289,VALID,0.894141,
2008-12-26, 00:17:05,VALID,1002.3,VALID,0,VALID,90.4022,VALID,0,VALID,25.8259,VALID,288,VALID,0.638281,
2008-12-26, 00:18:05,VALID,1002.29,VALID,0,VALID,90.3183,VALID,0,VALID,25.9057,VALID,288,VALID,0.332031,
2008-12-26, 00:19:05,VALID,1002.25,VALID,0,VALID,90.2344,VALID,0,VALID,25.9252,VALID,287,VALID,0.270312,
2008-12-26, 00:20:05,VALID,1002.25,VALID,0,VALID,90.0055,VALID,0,VALID,25.9038,VALID,292,VALID,0.507031,
2008-12-26, 00:21:05,VALID,1002.25,VALID,0,VALID,89.6393,VALID,0,VALID,25.9232,VALID,288,VALID,0.698828,
2008-12-26, 00:22:05,VALID,1002.21,VALID,0,VALID,89.4181,VALID,0,VALID,25.9642,VALID,286,VALID,0.994141,
2008-12-26, 00:23:05,VALID,1002.17,VALID,0,VALID,89.4486,VALID,0,VALID,25.9836,VALID,353,VALID,0.7625,
2008-12-26, 00:24:05,VALID,1002.16,VALID,0,VALID,89.4639,VALID,0,VALID,26.0226,VALID,337,VALID,0.570703,
2008-12-26, 00:25:05,VALID,1002.12,VALID,0,VALID,89.2732,VALID,0,VALID,26.0031,VALID,333,VALID,0.246484,
2008-12-26, 00:26:05,VALID,1002.13,VALID,0,VALID,89.296,VALID,0,VALID,26.0206,VALID,330,VALID,0.276953,
2008-12-26, 00:27:05,VALID,1002.12,VALID,0,VALID,89.3266,VALID,0,VALID,26.0206,VALID,330,VALID,0,
2008-12-26, 00:28:05,VALID,1002.12,VALID,0,VALID,89.3952,VALID,0,VALID,26.0616,VALID,330,VALID,0.135937,
2008-12-26, 00:29:05,VALID,1002.1,VALID,0,VALID,89.1664,VALID,0,VALID,26.0616,VALID,327,VALID,0.0453125,
2008-12-26, 00:30:05,VALID,1002.03,VALID,0,VALID,89.2045,VALID,0,VALID,26.0401,VALID,327,VALID,0.0429688,
2008-12-26, 00:31:05,VALID,1002.04,VALID,0,VALID,89.1358,VALID,0,VALID,26.081,VALID,327,VALID,0.242188,
2008-12-26, 00:32:05,VALID,1002.01,VALID,0,VALID,88.8078,VALID,0,VALID,26.081,VALID,326,VALID,0.382422,
2008-12-26, 00:33:05,VALID,1002.03,VALID,0,VALID,88.7849,VALID,0,VALID,26.1005,VALID,325,VALID,0.233594,
2008-12-26, 00:34:05,VALID,1002.03,VALID,0,VALID,88.5408,VALID,0,VALID,26.1005,VALID,296,VALID,0.594141,
2008-12-26, 00:35:05,VALID,1002.04,VALID,0,VALID,88.3424,VALID,0,VALID,26.1395,VALID,340,VALID,0.651172,
2008-12-26, 00:36:05,VALID,1002.05,VALID,0,VALID,87.961,VALID,0,VALID,26.1765,VALID,289,VALID,1.00664,
2008-12-26, 00:37:05,VALID,1002.04,VALID,0,VALID,87.8389,VALID,0,VALID,26.2369,VALID,281,VALID,0.8125,
2008-12-26, 00:38:05,VALID,1002.05,VALID,0,VALID,87.7626,VALID,0,VALID,26.2564,VALID,281,VALID,0.244141,
2008-12-26, 00:39:05,VALID,1002.04,VALID,0,VALID,87.694,VALID,0,VALID,26.2564,VALID,276,VALID,0.473828,
2008-12-26, 00:40:05,VALID,1002.02,VALID,0,VALID,87.6863,VALID,0,VALID,26.2564,VALID,276,VALID,0.289063,
2008-12-26, 00:41:05,VALID,1002.01,VALID,0,VALID,87.8694,VALID,0,VALID,26.2564,VALID,276,VALID,0.406641,
2008-12-26, 00:42:05,VALID,1002.01,VALID,0,VALID,87.8389,VALID,0,VALID,26.2154,VALID,318,VALID,0.641016,
2008-12-26, 00:43:05,VALID,1002,VALID,0,VALID,87.9915,VALID,0,VALID,26.2369,VALID,341,VALID,0.123828,
2008-12-26, 00:44:05,VALID,1002.01,VALID,0,VALID,88.2509,VALID,0,VALID,26.1959,VALID,341,VALID,0,
2008-12-26, 00:45:05,VALID,1002,VALID,0,VALID,88.3119,VALID,0,VALID,26.1765,VALID,340,VALID,0.449609,
2008-12-26, 00:46:05,VALID,1002,VALID,0,VALID,88.2051,VALID,0,VALID,26.1784,VALID,287,VALID,0.447266,
2008-12-26, 00:47:05,VALID,1001.99,VALID,0,VALID,88.1517,VALID,0,VALID,26.157,VALID,287,VALID,0.278906,
2008-12-26, 00:48:05,VALID,1002.01,VALID,0,VALID,88.1975,VALID,0,VALID,26.1765,VALID,286,VALID,0.184766,
2008-12-26, 00:49:05,VALID,1001.96,VALID,0,VALID,87.961,VALID,0,VALID,26.1765,VALID,292,VALID,1.24297,
2008-12-26, 00:50:05,VALID,1001.94,VALID,0,VALID,87.961,VALID,0,VALID,26.2369,VALID,2,VALID,0.686719,
2008-12-26, 00:51:05,VALID,1001.95,VALID,0,VALID,87.9534,VALID,0,VALID,26.2564,VALID,3,VALID,0.130469,
2008-12-26, 00:52:05,VALID,1001.92,VALID,0,VALID,87.9076,VALID,0,VALID,26.2564,VALID,288,VALID,0.842969,
2008-12-26, 00:53:05,VALID,1001.93,VALID,0,VALID,88.0373,VALID,0,VALID,26.2369,VALID,277,VALID,0.226953,
2008-12-26, 00:54:05,VALID,1001.93,VALID,0,VALID,88.1822,VALID,0,VALID,26.2369,VALID,280,VALID,0.235156,
2008-12-26, 00:55:05,VALID,1001.91,VALID,0,VALID,88.3806,VALID,0,VALID,26.2349,VALID,280,VALID,0.105469,
2008-12-26, 00:56:05,VALID,1001.85,VALID,0,VALID,88.556,VALID,0,VALID,26.2154,VALID,279,VALID,0.319531,
2008-12-26, 00:57:05,VALID,1001.89,VALID,0,VALID,88.8383,VALID,0.100563,VALID,26.1959,VALID,280,VALID,0.174609,
2008-12-26, 00:58:05,VALID,1001.87,VALID,0.5,VALID,88.7697,VALID,0.100563,VALID,26.1355,VALID,295,VALID,0.757422,
2008-12-26, 00:59:05,VALID,1001.9,VALID,0,VALID,89.0138,VALID,0.100563,VALID,26.1375,VALID,350,VALID,0.476172,
2008-12-26, 01:00:05,VALID,1001.86,VALID,0,VALID,89.2274,VALID,0.100563,VALID,26.118,VALID,323,VALID,0.209375,
2008-12-26, 01:01:05,VALID,1001.86,VALID,0,VALID,89.3647,VALID,0.100563,VALID,26.0791,VALID,355,VALID,0.766797,
2008-12-26, 01:02:05,VALID,1001.82,VALID,0,VALID,89.7004,VALID,0,VALID,26.0596,VALID,356,VALID,0.702734,
2008-12-26, 01:03:05,VALID,1001.79,VALID,0,VALID,89.8377,VALID,0.100563,VALID,25.9797,VALID,357,VALID,0.649609,
2008-12-26, 01:04:05,VALID,1001.78,VALID,0,VALID,90.036,VALID,0.100563,VALID,25.9408,VALID,358,VALID,0.716406,
2008-12-26, 01:05:05,VALID,1001.74,VALID,0,VALID,90.3259,VALID,0.100563,VALID,25.9232,VALID,351,VALID,0.648828,
2008-12-26, 01:06:05,VALID,1001.75,VALID,0,VALID,90.5624,VALID,0.100563,VALID,25.9038,VALID,336,VALID,0.879297,
2008-12-26, 01:07:05,VALID,1001.72,VALID,0,VALID,90.7989,VALID,0.100563,VALID,25.8648,VALID,315,VALID,0.119922,
2008-12-26, 01:08:05,VALID,1001.74,VALID,0,VALID,91.0049,VALID,0.100563,VALID,25.8239,VALID,343,VALID,1.08242,
2008-12-26, 01:09:05,VALID,1001.72,VALID,0,VALID,91.2109,VALID,0.100563,VALID,25.8259,VALID,349,VALID,0.575391,
2008-12-26, 01:10:05,VALID,1001.7,VALID,0,VALID,91.4321,VALID,0.100563,VALID,25.8259,VALID,352,VALID,0.338281,
2008-12-26, 01:11:05,VALID,1001.67,VALID,0,VALID,91.5771,VALID,0.100563,VALID,25.8064,VALID,352,VALID,0,
2008-12-26, 01:12:05,VALID,1001.63,VALID,0,VALID,91.6991,VALID,0.100563,VALID,25.7869,VALID,351,VALID,0.409766,
2008-12-26, 01:13:05,VALID,1001.64,VALID,0,VALID,91.8441,VALID,0.100563,VALID,25.7869,VALID,357,VALID,0.276172,
2008-12-26, 01:14:05,VALID,1001.6,VALID,0,VALID,91.989,VALID,0.100563,VALID,25.7655,VALID,357,VALID,0.116797,
2008-12-26, 01:15:05,VALID,1001.55,VALID,0,VALID,92.0577,VALID,0.100563,VALID,25.7869,VALID,286,VALID,1.16016,
2008-12-26, 01:16:05,VALID,1001.52,VALID,0,VALID,92.1035,VALID,0.100563,VALID,25.7869,VALID,354,VALID,0.926172,
2008-12-26, 01:17:05,VALID,1001.51,VALID,0,VALID,92.1569,VALID,0.100563,VALID,25.7655,VALID,360,VALID,0.566406,
2008-12-26, 01:18:05,VALID,1001.49,VALID,0,VALID,92.1874,VALID,0.100563,VALID,25.8064,VALID,360,VALID,0.260547,
2008-12-26, 01:19:05,VALID,1001.47,VALID,0,VALID,92.2179,VALID,0.100563,VALID,25.8044,VALID,291,VALID,0.344531,
2008-12-26, 01:20:05,VALID,1001.44,VALID,0,VALID,92.195,VALID,0,VALID,25.8259,VALID,289,VALID,0.914453,
2008-12-26, 01:21:05,VALID,1001.43,VALID,0,VALID,92.2179,VALID,0.100563,VALID,25.8259,VALID,281,VALID,0.0820313,
2008-12-26, 01:22:05,VALID,1001.4,VALID,0,VALID,92.1492,VALID,0.100563,VALID,25.8044,VALID,285,VALID,1.35117,
2008-12-26, 01:23:05,VALID,1001.39,VALID,0,VALID,92.1492,VALID,0.100563,VALID,25.8044,VALID,282,VALID,0.747266,
2008-12-26, 01:24:05,VALID,1001.36,VALID,0,VALID,92.1645,VALID,0.100563,VALID,25.8044,VALID,305,VALID,0.780078,
2008-12-26, 01:25:05,VALID,1001.33,VALID,0,VALID,92.1874,VALID,0,VALID,25.8278,VALID,347,VALID,1.16133,
2008-12-26, 01:26:05,VALID,1001.34,VALID,0,VALID,92.134,VALID,0,VALID,25.8473,VALID,292,VALID,0.854297,
2008-12-26, 01:27:05,VALID,1001.33,VALID,0,VALID,92.134,VALID,0,VALID,25.8473,VALID,307,VALID,0.198437,
2008-12-26, 01:28:05,VALID,1001.32,VALID,0,VALID,92.0958,VALID,0,VALID,25.8473,VALID,324,VALID,0.546875,
2008-12-26, 01:29:04,VALID,1001.3,VALID,0,VALID,92.1264,VALID,0,VALID,25.8473,VALID,319,VALID,0.201562,
2008-12-26, 01:30:04,VALID,1001.3,VALID,0,VALID,92.0424,VALID,0,VALID,25.8473,VALID,287,VALID,1.30039,
2008-12-26, 01:31:04,VALID,1001.29,VALID,0,VALID,91.9738,VALID,0,VALID,25.8668,VALID,301,VALID,0.223438,
2008-12-26, 01:32:04,VALID,1001.28,VALID,0,VALID,91.9509,VALID,0,VALID,25.8668,VALID,321,VALID,0.455078,
2008-12-26, 01:33:04,VALID,1001.26,VALID,0,VALID,91.9204,VALID,0,VALID,25.8668,VALID,283,VALID,0.828125,
2008-12-26, 01:34:04,VALID,1001.26,VALID,0,VALID,91.8899,VALID,0,VALID,25.8668,VALID,274,VALID,0.786328,
2008-12-26, 01:35:04,VALID,1001.25,VALID,0,VALID,91.9051,VALID,0,VALID,25.8473,VALID,284,VALID,0.58125,
2008-12-26, 01:36:04,VALID,1001.24,VALID,0,VALID,91.9051,VALID,0,VALID,25.8259,VALID,301,VALID,0.228906,
2008-12-26, 01:37:04,VALID,1001.28,VALID,0,VALID,91.7907,VALID,0,VALID,25.8882,VALID,291,VALID,1.06914,
2008-12-26, 01:38:04,VALID,1001.27,VALID,0,VALID,91.7297,VALID,0,VALID,25.8453,VALID,294,VALID,1.00078,
2008-12-26, 01:39:04,VALID,1001.26,VALID,0,VALID,91.6229,VALID,0,VALID,25.8668,VALID,294,VALID,0.635547,
2008-12-26, 01:40:04,VALID,1001.28,VALID,0,VALID,91.4016,VALID,0,VALID,25.8453,VALID,291,VALID,1.09766,
2008-12-26, 01:41:04,VALID,1001.24,VALID,0,VALID,91.3482,VALID,0,VALID,25.8843,VALID,312,VALID,0.484375,
2008-12-26, 01:42:04,VALID,1001.29,VALID,0,VALID,91.1956,VALID,0,VALID,25.9038,VALID,282,VALID,0.198047,
2008-12-26, 01:43:04,VALID,1001.25,VALID,0,VALID,91.0125,VALID,0,VALID,25.9038,VALID,281,VALID,0.338672,
2008-12-26, 01:44:04,VALID,1001.26,VALID,0,VALID,90.9134,VALID,0,VALID,25.9232,VALID,324,VALID,0.316406,
2008-12-26, 01:45:04,VALID,1001.24,VALID,0,VALID,90.5319,VALID,0,VALID,25.9427,VALID,264,VALID,0.623828,
2008-12-26, 01:46:04,VALID,1001.22,VALID,0,VALID,89.8835,VALID,0.100563,VALID,25.9817,VALID,290,VALID,0.901172,
2008-12-26, 01:47:04,VALID,1001.2,VALID,0,VALID,89.6165,VALID,0,VALID,26.0791,VALID,288,VALID,0.85,
2008-12-26, 01:48:04,VALID,1001.17,VALID,0,VALID,89.3418,VALID,0,VALID,26.1375,VALID,236,VALID,0.735937,
2008-12-26, 01:49:04,VALID,1001.17,VALID,0,VALID,89.3494,VALID,0.100563,VALID,26.2154,VALID,204,VALID,0.105859,
2008-12-26, 01:50:04,VALID,1001.17,VALID,0,VALID,89.3494,VALID,0,VALID,26.2154,VALID,265,VALID,0.48125,
2008-12-26, 01:51:04,VALID,1001.16,VALID,0,VALID,89.235,VALID,0,VALID,26.2154,VALID,271,VALID,0.301172,
2008-12-26, 01:52:04,VALID,1001.14,VALID,0,VALID,88.8917,VALID,0,VALID,26.2349,VALID,242,VALID,0.558203,
2008-12-26, 01:53:04,VALID,1001.15,VALID,0,VALID,88.8002,VALID,0,VALID,26.2913,VALID,227,VALID,0.683984,
2008-12-26, 01:54:04,VALID,1001.15,VALID,0,VALID,88.3424,VALID,0,VALID,26.3518,VALID,172,VALID,0.748047,
2008-12-26, 01:55:04,VALID,1001.06,VALID,0,VALID,87.6558,VALID,0,VALID,26.4102,VALID,202,VALID,1.56875,
2008-12-26, 01:56:04,VALID,1001.04,VALID,0,VALID,87.7626,VALID,0,VALID,26.4881,VALID,189,VALID,0.353516,
2008-12-26, 01:57:04,VALID,1001.01,VALID,0,VALID,87.6024,VALID,0.100563,VALID,26.5271,VALID,81,VALID,0.431641,
2008-12-26, 01:58:04,VALID,1000.96,VALID,0,VALID,87.5948,VALID,0,VALID,26.5466,VALID,296,VALID,1.44883,
2008-12-26, 01:59:04,VALID,1000.92,VALID,0,VALID,87.5795,VALID,0,VALID,26.5661,VALID,287,VALID,0.724609,
2008-12-26, 02:00:04,VALID,1000.9,VALID,0,VALID,87.3736,VALID,0.100563,VALID,26.5855,VALID,315,VALID,0.976563,
2008-12-26, 02:01:04,VALID,1000.86,VALID,0,VALID,87.1981,VALID,0,VALID,26.605,VALID,230,VALID,0.7875,
2008-12-26, 02:02:04,VALID,1000.81,VALID,0,VALID,87.0989,VALID,0,VALID,26.644,VALID,308,VALID,0.964844,
2008-12-26, 02:03:04,VALID,1000.78,VALID,0,VALID,87.0684,VALID,0.100563,VALID,26.644,VALID,303,VALID,1.0457,
2008-12-26, 02:04:04,VALID,1000.74,VALID,0,VALID,86.8701,VALID,0,VALID,26.6635,VALID,310,VALID,0.960547,
2008-12-26, 02:05:04,VALID,1000.69,VALID,0,VALID,86.9464,VALID,0,VALID,26.642,VALID,326,VALID,0.853906,
2008-12-26, 02:06:04,VALID,1000.7,VALID,0,VALID,86.7633,VALID,0,VALID,26.6635,VALID,307,VALID,0.798437,
2008-12-26, 02:07:04,VALID,1000.71,VALID,0,VALID,86.8777,VALID,0,VALID,26.644,VALID,289,VALID,0.376953,
2008-12-26, 02:08:04,VALID,1000.73,VALID,0,VALID,86.9464,VALID,0,VALID,26.6635,VALID,351,VALID,0.466016,
2008-12-26, 02:09:04,VALID,1000.78,VALID,0,VALID,87.015,VALID,0,VALID,26.644,VALID,284,VALID,0.910156,
2008-12-26, 02:10:04,VALID,1000.81,VALID,0,VALID,87.1523,VALID,0,VALID,26.605,VALID,285,VALID,0.454688,
2008-12-26, 02:11:04,VALID,1000.8,VALID,0,VALID,87.2973,VALID,0,VALID,26.5855,VALID,286,VALID,0.343359,
2008-12-26, 02:12:04,VALID,1000.79,VALID,0,VALID,87.4651,VALID,0,VALID,26.5855,VALID,278,VALID,0.910937,
2008-12-26, 02:13:04,VALID,1000.78,VALID,0,VALID,87.4651,VALID,0,VALID,26.605,VALID,273,VALID,1.01211,
2008-12-26, 02:14:04,VALID,1000.77,VALID,0,VALID,87.5185,VALID,0,VALID,26.6245,VALID,336,VALID,0.832812,
2008-12-26, 02:15:04,VALID,1000.76,VALID,0,VALID,87.694,VALID,0,VALID,26.644,VALID,258,VALID,0.397266,
2008-12-26, 02:16:04,VALID,1000.76,VALID,0,VALID,87.7703,VALID,0,VALID,26.644,VALID,173,VALID,0.901563,
2008-12-26, 02:17:04,VALID,1000.74,VALID,0,VALID,87.8923,VALID,0,VALID,26.6635,VALID,214,VALID,1.47383,
2008-12-26, 02:18:04,VALID,1000.73,VALID,0,VALID,88.1365,VALID,0,VALID,26.644,VALID,171,VALID,0.778125,
2008-12-26, 02:19:04,VALID,1000.73,VALID,0,VALID,88.3272,VALID,0,VALID,26.642,VALID,188,VALID,0.757422,
2008-12-26, 02:20:04,VALID,1000.73,VALID,0.5,VALID,88.9375,VALID,0,VALID,26.6245,VALID,203,VALID,1.36875,
2008-12-26, 02:21:04,VALID,1000.74,VALID,0,VALID,89.3647,VALID,0,VALID,26.5076,VALID,199,VALID,1.04727,
2008-12-26, 02:22:04,VALID,1000.73,VALID,0,VALID,89.3342,VALID,0,VALID,26.3518,VALID,225,VALID,2.26484,
2008-12-26, 02:23:04,VALID,1000.74,VALID,0,VALID,89.9826,VALID,0,VALID,26.2544,VALID,221,VALID,0.990625,
2008-12-26, 02:24:04,VALID,1000.73,VALID,0.5,VALID,89.4791,VALID,0.100563,VALID,26.0966,VALID,214,VALID,0.929688,
2008-12-26, 02:25:04,VALID,1000.78,VALID,0,VALID,87.8084,VALID,0.100563,VALID,25.9622,VALID,192,VALID,1.33008,
2008-12-26, 02:26:04,VALID,1000.66,VALID,0,VALID,87.0989,VALID,0.100563,VALID,25.7869,VALID,160,VALID,2.13711,
2008-12-26, 02:27:04,VALID,1000.63,VALID,0.5,VALID,87.4041,VALID,0.100563,VALID,25.6311,VALID,144,VALID,1.95273,
2008-12-26, 02:28:04,VALID,1000.62,VALID,0,VALID,88.5408,VALID,0,VALID,25.5142,VALID,139,VALID,1.19062,
2008-12-26, 02:29:04,VALID,1000.61,VALID,0,VALID,89.235,VALID,0,VALID,25.4188,VALID,151,VALID,1.04805,
2008-12-26, 02:30:04,VALID,1000.61,VALID,0,VALID,89.853,VALID,0,VALID,25.3,VALID,164,VALID,0.869531,
2008-12-26, 02:31:04,VALID,1000.58,VALID,0,VALID,90.2115,VALID,0,VALID,25.2221,VALID,146,VALID,0.992578,
2008-12-26, 02:32:04,VALID,1000.55,VALID,0,VALID,90.3565,VALID,0,VALID,25.1813,VALID,137,VALID,0.915625,
2008-12-26, 02:33:04,VALID,1000.51,VALID,0,VALID,90.1886,VALID,0,VALID,25.1637,VALID,167,VALID,2.42773,
2008-12-26, 02:34:04,VALID,1000.51,VALID,0,VALID,89.9903,VALID,0,VALID,25.2221,VALID,150,VALID,1.92617,
2008-12-26, 02:35:04,VALID,1000.52,VALID,0,VALID,90.2725,VALID,0,VALID,25.2007,VALID,155,VALID,0.788672,
2008-12-26, 02:36:04,VALID,1000.51,VALID,0,VALID,90.4099,VALID,0,VALID,25.2046,VALID,171,VALID,1.24453,
2008-12-26, 02:37:04,VALID,1000.5,VALID,0,VALID,90.7074,VALID,0,VALID,25.1637,VALID,165,VALID,0.645312,
2008-12-26, 02:38:04,VALID,1000.5,VALID,0,VALID,91.0812,VALID,0,VALID,25.1832,VALID,148,VALID,1.07148,
2008-12-26, 02:39:04,VALID,1000.49,VALID,0,VALID,91.2948,VALID,0,VALID,25.2027,VALID,160,VALID,1.09648,
2008-12-26, 02:40:04,VALID,1000.47,VALID,0,VALID,91.4169,VALID,0.100563,VALID,25.2221,VALID,153,VALID,0.606641,
2008-12-26, 02:41:04,VALID,1000.46,VALID,0,VALID,91.5237,VALID,0.100563,VALID,25.2416,VALID,155,VALID,0.519922,
2008-12-26, 02:42:04,VALID,1000.45,VALID,0,VALID,91.7754,VALID,0,VALID,25.2611,VALID,213,VALID,1.19102,
2008-12-26, 02:43:04,VALID,1000.45,VALID,0,VALID,91.7449,VALID,0.100563,VALID,25.2592,VALID,148,VALID,0.598828,
2008-12-26, 02:44:04,VALID,1000.45,VALID,0,VALID,91.8594,VALID,0.100563,VALID,25.3,VALID,161,VALID,0.388672,
2008-12-26, 02:45:04,VALID,1000.42,VALID,0,VALID,92.0348,VALID,0,VALID,25.339,VALID,196,VALID,0.451172,
2008-12-26, 02:46:04,VALID,1000.45,VALID,0,VALID,92.1111,VALID,0,VALID,25.339,VALID,179,VALID,0.410547,
2008-12-26, 02:47:04,VALID,1000.44,VALID,0,VALID,92.1874,VALID,0,VALID,25.3584,VALID,161,VALID,0.384375,
2008-12-26, 02:48:04,VALID,1000.42,VALID,0,VALID,92.195,VALID,0,VALID,25.3974,VALID,191,VALID,0.873438,
2008-12-26, 02:49:04,VALID,1000.43,VALID,0,VALID,92.2484,VALID,0,VALID,25.4344,VALID,170,VALID,0.829297,
2008-12-26, 02:50:04,VALID,1000.41,VALID,0,VALID,92.2027,VALID,0.100563,VALID,25.4539,VALID,182,VALID,0.795703,
2008-12-26, 02:51:04,VALID,1000.48,VALID,0,VALID,92.1035,VALID,0,VALID,25.4967,VALID,131,VALID,0.610937,
2008-12-26, 02:52:04,VALID,1000.45,VALID,0,VALID,92.0424,VALID,0,VALID,25.4734,VALID,131,VALID,0.635156,
2008-12-26, 02:53:04,VALID,1000.44,VALID,0,VALID,91.928,VALID,0,VALID,25.5142,VALID,133,VALID,0.494922,
2008-12-26, 02:54:04,VALID,1000.43,VALID,0,VALID,91.9356,VALID,0,VALID,25.5337,VALID,111,VALID,0.653125,
2008-12-26, 02:55:04,VALID,1000.42,VALID,0,VALID,91.8822,VALID,0.100563,VALID,25.4928,VALID,164,VALID,0.510938,
2008-12-26, 02:56:04,VALID,1000.4,VALID,0,VALID,91.9433,VALID,0.100563,VALID,25.4928,VALID,160,VALID,0.305859,
2008-12-26, 02:57:04,VALID,1000.37,VALID,0,VALID,91.9814,VALID,0.100563,VALID,25.4753,VALID,148,VALID,0.350391,
2008-12-26, 02:58:04,VALID,1000.38,VALID,0,VALID,91.9585,VALID,0,VALID,25.4753,VALID,114,VALID,0.142188,
2008-12-26, 02:59:04,VALID,1000.32,VALID,0,VALID,92.0043,VALID,0,VALID,25.4753,VALID,104,VALID,0.412109,
2008-12-26, 03:00:04,VALID,1000.3,VALID,0,VALID,92.0958,VALID,0.100563,VALID,25.4363,VALID,104,VALID,0.271875,
2008-12-26, 03:01:04,VALID,1000.31,VALID,0,VALID,92.1645,VALID,0,VALID,25.4344,VALID,143,VALID,0.801562,
2008-12-26, 03:02:04,VALID,1000.26,VALID,0,VALID,92.195,VALID,0.100563,VALID,25.4344,VALID,146,VALID,0.43125,
2008-12-26, 03:03:04,VALID,1000.24,VALID,0,VALID,92.195,VALID,0.100563,VALID,25.4539,VALID,146,VALID,0.370703,
2008-12-26, 03:04:04,VALID,1000.23,VALID,0,VALID,92.2027,VALID,0.100563,VALID,25.4558,VALID,144,VALID,0.684766,
2008-12-26, 03:05:04,VALID,1000.18,VALID,0,VALID,92.2789,VALID,0,VALID,25.4753,VALID,124,VALID,0.419922,
2008-12-26, 03:06:04,VALID,1000.17,VALID,0,VALID,92.2484,VALID,0.100563,VALID,25.4753,VALID,137,VALID,0.791797,
2008-12-26, 03:07:04,VALID,1000.14,VALID,0,VALID,92.1416,VALID,0.100563,VALID,25.4734,VALID,173,VALID,0.698047,
2008-12-26, 03:08:04,VALID,1000.11,VALID,0,VALID,91.989,VALID,0.100563,VALID,25.5142,VALID,145,VALID,0.833203,
2008-12-26, 03:09:04,VALID,1000.1,VALID,0,VALID,91.8441,VALID,0.100563,VALID,25.5123,VALID,154,VALID,0.714844,
2008-12-26, 03:10:04,VALID,1000.07,VALID,0,VALID,91.6915,VALID,0.100563,VALID,25.5318,VALID,179,VALID,0.685938,
2008-12-26, 03:11:04,VALID,1000.03,VALID,0,VALID,91.1499,VALID,0.100563,VALID,25.5298,VALID,143,VALID,1.40664,
2008-12-26, 03:12:04,VALID,1000.01,VALID,0,VALID,90.5167,VALID,0.100563,VALID,25.6292,VALID,179,VALID,1.58789,
2008-12-26, 03:13:04,VALID,999.999,VALID,0,VALID,90.2039,VALID,0.100563,VALID,25.6876,VALID,159,VALID,1.37422,
2008-12-26, 03:14:04,VALID,999.992,VALID,0,VALID,89.708,VALID,0.100563,VALID,25.6876,VALID,186,VALID,2.11641,
2008-12-26, 03:15:04,VALID,999.96,VALID,0,VALID,89.6088,VALID,0.100563,VALID,25.7655,VALID,150,VALID,0.811328,
2008-12-26, 03:16:04,VALID,999.934,VALID,0,VALID,89.2121,VALID,0.100563,VALID,25.8044,VALID,205,VALID,1.30781,
2008-12-26, 03:17:04,VALID,999.906,VALID,0,VALID,89.0138,VALID,0.100563,VALID,25.785,VALID,193,VALID,1.26406,
2008-12-26, 03:18:04,VALID,999.856,VALID,0,VALID,88.9375,VALID,0,VALID,25.8064,VALID,184,VALID,0.957812,
2008-12-26, 03:19:04,VALID,999.868,VALID,0,VALID,88.7773,VALID,0.100563,VALID,25.8044,VALID,162,VALID,0.900781,
2008-12-26, 03:20:04,VALID,999.786,VALID,0,VALID,88.5637,VALID,0.100563,VALID,25.8434,VALID,139,VALID,1.27227,
2008-12-26, 03:21:04,VALID,999.803,VALID,0,VALID,88.701,VALID,0.100563,VALID,25.8629,VALID,204,VALID,0.557031,
2008-12-26, 03:22:04,VALID,999.778,VALID,0,VALID,88.1822,VALID,0.100563,VALID,25.8239,VALID,166,VALID,1.12617,
2008-12-26, 03:23:04,VALID,999.772,VALID,0,VALID,87.8847,VALID,0.100563,VALID,25.8434,VALID,171,VALID,1.11406,
2008-12-26, 03:24:04,VALID,999.783,VALID,0,VALID,87.488,VALID,0,VALID,25.8239,VALID,167,VALID,1.36563,
2008-12-26, 03:25:04,VALID,999.792,VALID,0,VALID,86.9616,VALID,0,VALID,25.8259,VALID,175,VALID,1.42266,
2008-12-26, 03:26:04,VALID,999.795,VALID,0,VALID,86.9692,VALID,0,VALID,25.8453,VALID,188,VALID,0.781641,
2008-12-26, 03:27:04,VALID,999.814,VALID,0,VALID,86.7938,VALID,0,VALID,25.8259,VALID,158,VALID,0.905078,
2008-12-26, 03:28:04,VALID,999.836,VALID,0,VALID,86.1987,VALID,0,VALID,25.8453,VALID,153,VALID,1.61367,
2008-12-26, 03:29:04,VALID,999.83,VALID,0,VALID,85.8783,VALID,0,VALID,25.8668,VALID,189,VALID,1.09414,
2008-12-26, 03:30:04,VALID,999.831,VALID,0,VALID,85.8783,VALID,0,VALID,25.8473,VALID,177,VALID,0.994141,
2008-12-26, 03:31:04,VALID,999.84,VALID,0,VALID,85.5655,VALID,0,VALID,25.8064,VALID,196,VALID,1.32734,
2008-12-26, 03:32:04,VALID,999.875,VALID,0,VALID,85.7944,VALID,0,VALID,25.8473,VALID,196,VALID,0.464844,
2008-12-26, 03:33:04,VALID,999.861,VALID,0,VALID,85.2604,VALID,0,VALID,25.8453,VALID,205,VALID,0.970312,
2008-12-26, 03:34:04,VALID,999.873,VALID,0,VALID,84.3602,VALID,0,VALID,25.8648,VALID,185,VALID,1.60664,
2008-12-26, 03:35:04,VALID,999.834,VALID,0,VALID,84.261,VALID,0,VALID,25.9038,VALID,197,VALID,1.47773,
2008-12-26, 03:36:04,VALID,999.834,VALID,0,VALID,84.2457,VALID,0,VALID,25.9447,VALID,201,VALID,0.767187,
2008-12-26, 03:37:04,VALID,999.822,VALID,0,VALID,84.1542,VALID,0,VALID,25.9836,VALID,137,VALID,0.858984,
2008-12-26, 03:38:04,VALID,999.806,VALID,0,VALID,84.2076,VALID,0,VALID,26.0031,VALID,159,VALID,0.563672,
2008-12-26, 03:39:04,VALID,999.804,VALID,0,VALID,84.7263,VALID,0,VALID,25.9622,VALID,259,VALID,0.202344,
2008-12-26, 03:40:04,VALID,999.806,VALID,0,VALID,84.9171,VALID,0,VALID,25.9232,VALID,258,VALID,0.134766,